Showing default

FLOCK 4G 7, 62624

Orbit data source: Space-Track

FLOCK 4G 7, 62624 is a payload satellite owned by Planet (US) in SSO that was launched on Tue, 14 Jan 2025 UTC via an FALCON 9 launch vehicle from the Air Force Western Test Range (AFWTR). Payload-class satellites include a variety of spacecraft equipped with specific instruments for various scientific and technological missions. These include communications satellites like Starlink; space stations such as the ISS; scientific satellites like the Hubble; Earth observation satellites from companies like Planet Labs, Umbra, and HawkEye 360; GPS; miniature CubeSats for education and research; and military/defense satellites.

Loading next visibility...
Identifier
62624, 2025-009R
Orbit
SSO
Country
Flag of USUS
Related business
Manufacturer
Planet
Mission
Operational Commercial Imaging
Bus & Motor
CUBESAT 3U, Unknown motor
Mass
5.7 kg wet, 5.7 kg dry
Launch date (UTC)
2025-01-14 (1 year ago)
Launch vehicle
FALCON 9
Launch site
Air Force Western Test Range (AFWTR)
Object type
Payload
Rocket body
Debris
Shape & HBR
Box + 2 Pan, 1.0 m
Radar Cross Section
0.072 m², Medium (>0.1 m² and < 1m²)

Expand to show TLE details & history
Last TLE update: 1 day ago

TLE from 1 day ago
0 FLOCK 4G 7
1 62624U 25009R   26034.19337135  .00011773  00000-0  45662-3 0  9998
2 62624  97.4050 116.5208 0003939  85.3170 274.8519 15.26266773 58440
Epoch: 2026-02-03T04:38Z
TLE epoch observation values (Epoch: 2026-02-03T04:38:27.284Z)
Latitude
0.00003°
Longitude
-86.47071°
Altitude
489.855 km
Speed
7.62 km/s
True Right ascension
07h 46m 04s
True Declination
0° 00' 00"
Sunlit
Object was in full shadow at epoch
Visualization orbit readout
Latitude
Unknown
Longitude
Unknown
Altitude
Unknown
Speed
Unknown
Apparent Right ascension
Unknown
Apparent Declination
Unknown
Sunlit
N/A
Visualization observer readout
Local Sidereal Time
07:10:37
Azimuth
Unknown
Elevation
Unknown
Doppler factor
Unknown
Orbital elements
Apogee altitude
486.645 km
Perigee altitude
481.239 km
Semi-major axis
6,862.079 km
Eccentricity
0.00039
Inclination
97.405°
RAAN
116.5208°
Arg. of periapsis
85.317°
True anomaly
274.80692°
Mean anomaly
274.8519°
Eccentric anomaly
274.82941°
Mean motion
3.81821 °/min
Orbital period
94.29 mins
BSTAR
0.00045662
Loading maneuver chart data...
Computing Atmospheric mass density...
Loading historical data...
Loading historical data...
Loading historical data...
Loading historical data...
Loading historical data...
Loading historical data...
Loading historical data...

Documentation

Showing up to 5 results
|